Погода Запорожье

Погода Запорожье : погода сейчас, прогноз погоды и архив. Всё, что Вы хотите узнать о погоде Запорожье!

Хотите узнать прогноз погоды в Запорожье? Тогда Вам сюда: Погода в Запорожье

Поиск расширенной информации на нашем сайте:

Другие новости

Новости СМИ2

Главная страница сайта

Новости сайта

03.07.2017

Напоминаем, что на нашем специализированном сайте Метеоцентр.Азия вы можете получить высокодетализированные автоматические прогнозы погоды по пунктам России, СНГ и мира в авиационном формате (включающие направление и скорость ветра, видимость, явления погоды, количество и форму облачности, нижнюю и верхнюю границу облачности).


Погода Запорожье - сегодня

Время (UTC), дата Ветер
(°,м/с) 
Видим.   Явления Облачность Т
(°С)
Тd
(°С)
f(%) Тe
(°С)
Pmin
(гПа)
dP
(гПа)
Po
(мм)
O2
(г/м3)
Тmin Tmax R s Состояние
почвы
00 23.02.18 030 (СВ) 10 км    9/9 500 м 
[Sc]
-4.4 -6.7 84 -8  1021.6  0.1  755  310          затоплена
водой 
03 23.02.18 030 (СВ) 10 км    9/9 480 м 
[Sc]
-5.1 -7.2 85 -9  1021  -0.6  755  311           
06 23.02.18 030 (СВ) 10 км    9/9 720 м 
[Sc]
-5.3 -7.6 84 -10  1021.1  0.1  755  311  -5.4        затоплена
водой 
09 23.02.18 040 (СВ) 10 км    9/9 1000 м 
[Sc]
-3.6 -6.9 78 -7  1020.9  -0.1  755  309        497  мокрый или
старый снег
10-40% 
12 23.02.18 030 (СВ) 10 км    8/5 1020 м средняя 
[Sc|Ac trans]
-2.2 -6.6 72 -6  1020.5  -0.3  755  307          затоплена
водой 
15 23.02.18 040 (СВ) 10 км    4/0 верхняя 
[Ci fib]
-3 -7.3 72 -7  1020.4  -0.2  755  308        495   
18 23.02.18 040 (СВ) 10 км    ясно 
-6.1 -10 74 -9  1021.5  0.9  755  312  +50.3  -1.5      мокрая 
21 23.02.18 030 (СВ) 10 км    9/0 средняя 
[Ac trans]
-8 -11.3 77 -12  1020.8  -0.8  755  314        296   
00 24.02.18 040 (СВ) 10 км    9/0 средняя 
[Ac trans]
-8.2 -10.9 81 -12  1020.7  -0.1  755  315           
03 24.02.18 030 (СВ) 10 км  слаб. ливневой снег  9/8 450 м кучево-дожд. 
[Cb cap]
-8 -10.2 84 -12  1019.3  -1.3  754  314          затоплена
водой 
06 24.02.18 050 (СВ) 10 км  {ливн. осадки}  9/4 1000 м средняя 
[Sc|Ac trans]
-7.6 -9.5 86 -12  1018.7  -0.6  753  313  -8.3    0.0     
09 24.02.18 050 (СВ) 8000 м  дымка{снег}  9/9 700 м 
[Sc]
-4.6 -8 77 -8  1017.9  -0.6  753  309          затоплена
водой 
12 24.02.18 050 (СВ) 10 км  {снег}  9/9 750 м 
[Sc]
-2.9 -8 68 -6  1016  -1.8  751  307      0.1     
15 24.02.18 040 (СВ) 8000 м  слаб. ливневой снег  9/9 500 м кучево-дожд. 
[Cb cap]
-4.5 -6.6 85 -9  1015.5  -0.6  751  308          затоплена
водой 
18 24.02.18 040 (СВ) 6000 м  слаб. ливневой снег  9/9 300 м кучево-дожд. 
[Cb cap]
-6.6 -8.7 85 -11  1016.2  0.6  751  311    -1.9  0.1     
21 24.02.18 020 (С) 10 км  слаб. снег{ливн. осадки}  9/9 600 м 
[Sc]
-8.8 -10.6 87 -13  1017  0.6  752  314          затоплена
водой 
00 25.02.18 020 (С) 10 км  {ливн. осадки, снег}  9/9 1000 м 
[Sc]
-10.2 -11.8 88 -14  1016.9  -0.1  752  316           
03 25.02.18 360 (С) 10 км    8/8 1470 м 
[Sc]
-11.6 -12.9 90 -16  1017.1  0.1  752  318        596  мокрый или
старый снег
10-40% 
06 25.02.18 360 (С) 10 км    4/0 верхняя 
[Ci fib]
-12.2 -13.8 88 -17  1017.9  0.7  752  319  -13.5    0.1    затоплена
водой 
09 25.02.18 010 (С) 10 км    3/0 средняя 
[Ac trans]
-7 -11.2 72 -12  1017.3  -0.3  752  312        996   
12 25.02.18 360 (С) 10 км    4/4 900 м 
[Sc]
-4.5 -11.1 60 -8  1017.1  752  309           
15 25.02.18 350 (С) 10 км    4/0 средняя 
[Ac trans]
-6.8 -12.3 65 -12  1018.3  753  312         
18 25.02.18 360 (С) 10 км    ясно 
-9.9 -13 78 -14  1020.2  1.7  754  317  +0  -99.7      затоплена
водой 
21 25.02.18 340 (С) 10 км    ясно 
-12.3 -14.2 86 -17    0.8             
00 26.02.18 330 (СЗ) 10 км    ясно 
-13.7 -15 90 -17  1022.4  1.2             
Время (UTC), дата Ветер
(°,м/с) 
Видим.   Явления Облачность Т
(°С)
Тd
(°С)
f(%) Тe
(°С)
Pmin
(гПа)
dP
(гПа)
Po
(мм)
O2
(г/м3)
Тmin Tmax R s Состояние
почвы

Для получения пояснительной информации подведите курсор к названию столбца.

ПОГОДА Запорожье - архив

Всё, что Вы хотите узнать о погоде Запорожье - удобно и подробно!

Выберите нужную дату (начиная с 1 января 2015* года) и нажмите кнопку "Найти".
Будут отображены архивные сводки погоды по пункту Запорожье, начиная с указанной даты.


Отображать данные в формате CSV (для использования в таблицах Excel)


Внимание! Наш архив погоды предназначен исключительно для личного некоммерческого использования в познавательных целях. Если Вам необходимы официальные справки о состоянии погоды (для производственных, юридических, коммерческих и т.п. целей), обращайтесь в органы Росгидромета.

*Примечание: данная дата относится к архиву по метеостанциям СССР (Россия, СНГ, Балтия).
Архив по метеостанциям Зарубежной Европы и Азии (кроме Китая) хранится 10 дней, по другим регионам земного шара (Китай, Африка, Америка, Австралия, Океания) - 1 день.

Запорожье - район местоположения метеостанции


Название, широта, долгота, высота метеостанции:
Запорожье 47.8°ш. 35°д. 112 м над ур. моря [Украина]

Дополнительная информация

В oтличие oт бoльшинства пoгoдных сайтoв мы публикуем пoдрoбную метеoинфoрмацию в детальнoм прoфессиoнальнoм фoрмате.

Характеристики температуры и влажнoсти вoздуха измеряются на высoте 2 м в тени вдали oт зданий и деревьев.
Скoрoсть ветра измеряется на высoте 10 м (на урoвне рoста челoвека скoрoсть ветра ниже в 1.5-2 раза). Если метеoстанция нахoдится в гoрoде или в лесу, тo скoрoсть ветра занижена на 2-4 м/с пo сравнению с oткрытым местoм. Скoрoсть ветра над акватoриями крупных рек и oзёр, а также на вершинах хoлмoв на 2-5 м/с выше, чем в oбычных услoвиях.
Атмoсфернoе давление в разных тoчках местнoсти мoжет значительнo oтличаться oт давления на метеoстанции, в зависимoсти oт услoвий рельефа (при пoдъёме на 10 м давление пoнижается примернo на 1 мм рт.ст.).